#timestamp,LO_Frequency,Hit,StdDev 
1618927215.4,286047002.8,N
1618927235.3,286047002.3,N
1618927255.1,286047001.6,N
1618927275.9,286047002.5,N
1618927295.7,286047001.5,N
1618927315.5,286047001.3,N
1618927335.4,286047001.8,N
1618927355.2,286047001.5,N
1618927375.1,286047001.7,N
1618927376.0,286047001.7,N
1618927395.8,286047001.4,N
1618927415.6,286047001.5,N
1618927435.5,286047004.0,Y
1618927455.3,286047000.0,P
1618927475.1,286046999.8,N
1618927495.9,286047000.7,N
1618927515.7,286047000.9,N
1618927535.6,286047002.3,Y
1618927555.4,286047002.7,P
1618927575.2,286047000.0,N
1618927595.1,286047000.6,N
1618927596.0,286047000.6,N
1618927615.8,286047000.1,N
1618927635.7,286047000.5,N
1618927655.5,286047000.2,N
1618927675.3,286047000.8,N
1618927695.2,286046999.3,N
1618927715.0,286047002.1,N
1618927715.9,286047002.1,N
1618927735.7,286047000.5,N
1618927755.6,286047000.4,N
1618927775.4,286047000.2,N
1618927795.3,286046999.8,N
1618927815.1,286046999.7,N
1618927816.0,286046999.7,N
1618927835.8,286046999.0,N
1618927855.7,286046996.5,Y
1618927875.5,286046998.0,P
1618927895.4,286046995.4,P
1618927915.2,286046998.2,N
1618927935.0,286047001.2,N
1618927935.9,286047001.2,N
1618927955.8,286046998.4,N
1618927975.6,286047000.8,N
1618927995.4,286046999.3,N
1618928015.3,286046998.1,N
1618928035.1,286046998.1,N
1618928055.9,286046998.3,N
1618928075.7,286046999.1,N
1618928095.5,286046999.1,N
1618928115.4,286046999.3,N
1618928135.2,286046996.6,N
1618928155.0,286046998.5,N
1618928155.9,286046998.5,N
1618928175.8,286046999.6,N
1618928195.6,286046997.8,N
1618928215.5,286046998.0,N
1618928235.3,286046994.9,Y
1618928255.1,286046998.9,P
1618928275.9,286046998.5,P
1618928295.7,286046998.4,P
1618928315.6,286047002.4,Y
1618928335.4,286047005.4,P
1618928355.2,286047003.2,N
1618928375.1,286047004.1,N
1618928376.0,286047004.1,N
1618928395.8,286047007.6,Y
1618928415.7,286047001.8,P
1618928435.5,286046998.9,N
1618928455.3,286046998.8,N
1618928475.2,286046999.4,N
1618928495.9,286046996.5,N
1618928515.7,286046998.3,N
1618928535.6,286046998.9,N
1618928555.4,286046996.7,N
1618928575.3,286046999.4,N
1618928595.1,286046999.7,N
1618928596.0,286046999.7,N
1618928615.8,286047001.1,N
1618928635.7,286047000.3,N
1618928655.5,286047000.3,N
1618928675.3,286047000.3,N
1618928695.2,286047002.0,N
1618928715.0,286047006.0,Y
1618928715.9,286047006.0,P
1618928735.8,286047004.7,N
1618928755.6,286047004.5,N
1618928775.4,286047007.2,Y
1618928795.3,286047001.0,P
1618928815.1,286047000.4,N
1618928835.8,286047000.5,N
1618928855.7,286047002.2,N
1618928875.5,286047002.1,N
1618928895.4,286047002.7,N
1618928915.2,286046998.1,N
1618928935.0,286046997.0,N
1618928935.9,286046997.0,N
1618928955.8,286047000.9,N
1618928975.6,286047000.6,N
1618928995.4,286047000.2,N
1618929015.3,286046999.7,N
1618929035.1,286047000.0,N
1618929055.9,286047000.2,N
1618929075.7,286046998.6,N
1618929095.5,286046998.4,N
1618929115.4,286046998.3,N
1618929135.2,286046999.4,N
1618929155.1,286046996.9,N
1618929156.0,286046996.9,N
1618929175.8,286046999.6,N
1618929195.6,286046998.2,N
1618929215.5,286046996.7,N
1618929235.3,286046997.4,N
1618929255.1,286046999.0,N
1618929275.9,286047002.2,N
1618929295.7,286047002.1,N
1618929315.6,286047001.2,N
1618929335.4,286047000.8,N
1618929355.2,286047000.9,N
1618929375.1,286046998.1,N
1618929376.0,286046998.1,N
1618929395.8,286046999.7,N
1618929415.7,286047000.5,N
1618929435.5,286047000.8,N
1618929455.3,286046998.8,N
1618929475.2,286046999.0,N
1618929495.0,286047000.7,N
1618929495.9,286047000.7,N
1618929515.7,286046999.3,N
1618929535.6,286047001.2,N
1618929555.4,286047000.4,N
1618929575.3,286047001.2,N
1618929595.1,286046998.1,N
1618929615.8,286047000.1,N
1618929635.7,286047000.7,N
1618929655.5,286046999.1,N
1618929675.4,286046999.4,N
1618929695.2,286046998.2,N
1618929715.0,286047002.3,N
1618929715.9,286047002.3,N
1618929735.8,286047001.0,N
1618929755.6,286047000.8,N
1618929775.4,286046996.5,N
1618929795.3,286046998.5,N
1618929815.1,286047001.1,N
1618929835.9,286046998.5,N
1618929855.7,286046998.9,N
1618929875.5,286046999.7,N
1618929895.4,286047001.6,N
1618929915.2,286047002.7,N
1618929935.1,286047004.4,Y
1618929936.0,286047004.4,P
1618929955.8,286047001.8,N
1618929975.6,286047000.5,N
1618929995.5,286047001.0,N
1618930015.3,286047000.7,N
1618930035.1,286046998.4,N
1618930055.9,286047000.4,N
1618930075.7,286047000.8,N
1618930095.6,286046998.4,N
1618930115.4,286047000.7,N
1618930135.2,286047000.5,N
1618930155.1,286047000.0,N
1618930156.0,286047000.0,N
1618930175.8,286047000.2,N
1618930195.6,286046998.4,N
1618930215.5,286046996.5,N
1618930235.3,286047000.7,N
1618930255.2,286046999.1,N
1618930275.9,286047002.7,N
1618930295.7,286046999.8,N
1618930315.6,286047002.4,N
1618930335.4,286046999.0,N
1618930355.2,286046998.5,N
1618930375.1,286047001.6,N
1618930376.0,286047001.6,N
1618930395.8,286047006.0,Y
1618930415.7,286047004.1,P
1618930435.5,286047005.5,N
1618930455.3,286047005.7,N
1618930475.2,286047003.8,N
1618930495.0,286047001.8,N
1618930495.9,286047001.8,N
1618930515.8,286047001.2,N
1618930535.6,286047000.2,N
1618930555.4,286047000.4,N
1618930575.3,286047002.8,N
1618930595.1,286047002.5,N
1618930615.8,286047002.4,N
1618930635.7,286046998.6,N
1618930655.5,286046998.1,N
1618930675.4,286047004.2,N
1618930695.2,286047003.1,N
1618930715.0,286047002.4,N
1618930715.9,286047002.4,N
1618930735.8,286047003.7,N
1618930755.6,286047003.9,N
1618930775.5,286047000.1,N
1618930795.3,286046999.3,N
